Time,TemperatureF,DewpointF,PressureIn,WindDirection,WindDirectionDegrees,WindSpeedMPH,WindSpeedGustMPH,Humidity,HourlyPrecipIn,Conditions,Clouds,dailyrainin,SolarRadiationWatts/m^2,SoftwareType,DateUTC
2013-01-29 00:01:00,33.0,28.0,-100.00,SSW,192,2.0,3.0,80,0.00,,,0.00,0.000000,,2013-01-29 05:01:00,
2013-01-29 00:32:00,33.0,28.0,-100.00,SSW,192,2.0,3.0,80,0.00,,,0.00,0.000000,,2013-01-29 05:32:00,
2013-01-29 00:43:00,33.0,28.0,-100.00,SSW,192,2.0,3.0,80,0.00,,,0.00,0.000000,,2013-01-29 05:43:00,
2013-01-29 00:52:00,33.0,28.0,-100.00,SSW,192,2.0,3.0,80,0.00,,,0.00,0.000000,,2013-01-29 05:52:00,
2013-01-29 01:01:00,32.0,27.0,-100.00,SE,138,1.0,3.0,80,0.00,,,0.00,0.000000,,2013-01-29 06:01:00,
2013-01-29 01:32:00,32.0,27.0,-100.00,SE,138,1.0,3.0,80,0.00,,,0.00,0.000000,,2013-01-29 06:32:00,
2013-01-29 01:42:00,32.0,27.0,-100.00,SE,138,1.0,3.0,80,0.00,,,0.00,0.000000,,2013-01-29 06:42:00,
2013-01-29 01:52:00,32.0,27.0,-100.00,SE,138,1.0,3.0,80,0.00,,,0.00,0.000000,,2013-01-29 06:52:00,
2013-01-29 02:01:00,31.0,26.0,-100.00,SE,127,2.0,4.0,81,0.00,,,0.00,0.000000,,2013-01-29 07:01:00,
2013-01-29 02:32:00,31.0,26.0,-100.00,SE,127,2.0,4.0,81,0.00,,,0.00,0.000000,,2013-01-29 07:32:00,
2013-01-29 02:42:00,31.0,26.0,-100.00,SE,127,2.0,4.0,81,0.00,,,0.00,0.000000,,2013-01-29 07:42:00,
2013-01-29 02:52:00,31.0,26.0,-100.00,SE,127,2.0,4.0,81,0.00,,,0.00,0.000000,,2013-01-29 07:52:00,
2013-01-29 03:01:00,33.0,28.0,-100.00,SE,140,5.0,10.0,81,0.00,,,0.00,0.000000,,2013-01-29 08:01:00,
2013-01-29 03:32:00,33.0,28.0,-100.00,SE,140,5.0,10.0,81,0.00,,,0.00,0.000000,,2013-01-29 08:32:00,
2013-01-29 03:42:00,33.0,28.0,-100.00,SE,140,5.0,10.0,81,0.00,,,0.00,0.000000,,2013-01-29 08:42:00,
2013-01-29 03:52:00,33.0,28.0,-100.00,SE,140,5.0,10.0,81,0.00,,,0.00,0.000000,,2013-01-29 08:52:00,
2013-01-29 04:01:00,34.0,29.0,-100.00,SSE,149,8.0,13.0,81,0.00,,,0.00,0.000000,,2013-01-29 09:01:00,
2013-01-29 04:32:00,34.0,29.0,-100.00,SSE,149,8.0,13.0,81,0.00,,,0.00,0.000000,,2013-01-29 09:32:00,
2013-01-29 04:42:00,34.0,29.0,-100.00,SSE,149,8.0,13.0,81,0.00,,,0.00,0.000000,,2013-01-29 09:42:00,
2013-01-29 04:52:00,34.0,29.0,-100.00,SSE,149,8.0,13.0,81,0.00,,,0.00,0.000000,,2013-01-29 09:52:00,
2013-01-29 05:01:00,34.0,29.0,-100.00,SSE,150,6.0,16.0,81,0.00,,,0.00,0.000000,,2013-01-29 10:01:00,
2013-01-29 05:22:00,34.0,29.0,-100.00,SSE,150,6.0,16.0,81,0.00,,,0.00,0.000000,,2013-01-29 10:22:00,
2013-01-29 05:32:00,34.0,29.0,-100.00,SSE,150,6.0,16.0,81,0.00,,,0.00,0.000000,,2013-01-29 10:32:00,
2013-01-29 05:42:00,34.0,29.0,-100.00,SSE,150,6.0,16.0,81,0.00,,,0.00,0.000000,,2013-01-29 10:42:00,
2013-01-29 05:52:00,34.0,29.0,-100.00,SSE,150,6.0,16.0,81,0.00,,,0.00,0.000000,,2013-01-29 10:52:00,
2013-01-29 06:01:00,35.0,30.0,-100.00,SSE,150,10.0,17.0,81,0.00,,,0.00,0.000000,,2013-01-29 11:01:00,
2013-01-29 06:32:00,35.0,30.0,-100.00,SSE,150,10.0,17.0,81,0.00,,,0.00,0.000000,,2013-01-29 11:32:00,
2013-01-29 06:42:00,35.0,30.0,-100.00,SSE,150,10.0,17.0,81,0.00,,,0.00,0.000000,,2013-01-29 11:42:00,
2013-01-29 06:53:00,35.0,30.0,-100.00,SSE,150,10.0,17.0,81,0.00,,,0.00,0.000000,,2013-01-29 11:53:00,
2013-01-29 07:01:00,37.0,32.0,-100.00,NNE,14,3.0,21.0,81,0.00,,,0.00,0.000000,,2013-01-29 12:01:00,
2013-01-29 07:33:00,37.0,32.0,-100.00,NNE,14,3.0,21.0,81,0.00,,,0.00,0.000000,,2013-01-29 12:33:00,
2013-01-29 07:43:00,37.0,32.0,-100.00,NNE,14,3.0,21.0,81,0.00,,,0.00,0.000000,,2013-01-29 12:43:00,
2013-01-29 07:53:00,37.0,32.0,-100.00,NNE,14,3.0,21.0,81,0.00,,,0.00,0.000000,,2013-01-29 12:53:00,
2013-01-29 08:01:00,36.0,31.0,-100.00,ESE,112,5.0,17.0,81,0.00,,,0.00,0.000000,,2013-01-29 13:01:00,
2013-01-29 08:32:00,36.0,31.0,-100.00,ESE,112,5.0,17.0,81,0.00,,,0.00,0.000000,,2013-01-29 13:32:00,
2013-01-29 08:43:00,36.0,31.0,-100.00,ESE,112,5.0,17.0,81,0.00,,,0.00,0.000000,,2013-01-29 13:43:00,
2013-01-29 08:53:00,36.0,31.0,-100.00,ESE,112,5.0,17.0,81,0.00,,,0.00,0.000000,,2013-01-29 13:53:00,
2013-01-29 09:01:00,37.0,32.0,-100.00,SSE,161,5.0,15.0,81,0.00,,,0.00,5.000000,,2013-01-29 14:01:00,
2013-01-29 09:22:00,37.0,32.0,-100.00,SSE,161,5.0,15.0,81,0.00,,,0.00,5.000000,,2013-01-29 14:22:00,
2013-01-29 09:33:00,37.0,32.0,-100.00,SSE,161,5.0,15.0,81,0.00,,,0.00,5.000000,,2013-01-29 14:33:00,
2013-01-29 09:43:00,37.0,32.0,-100.00,SSE,161,5.0,15.0,81,0.00,,,0.00,5.000000,,2013-01-29 14:43:00,
2013-01-29 09:53:00,37.0,32.0,-100.00,SSE,161,5.0,15.0,81,0.00,,,0.00,5.000000,,2013-01-29 14:53:00,
2013-01-29 10:01:00,15.0,-99.9,-100.00,ESE,102,-999.0,-999.0,-999,-99.99,,,-99.99,,,2013-01-29 15:01:00,
2013-01-29 10:33:00,15.0,-99.9,-100.00,ESE,102,-999.0,-999.0,-999,-99.99,,,-99.99,,,2013-01-29 15:33:00,
2013-01-29 10:43:00,15.0,-99.9,-100.00,ESE,102,-999.0,-999.0,-999,-99.99,,,-99.99,,,2013-01-29 15:43:00,
2013-01-29 10:53:00,15.0,-99.9,-100.00,ESE,102,-999.0,-999.0,-999,-99.99,,,-99.99,,,2013-01-29 15:53:00,
2013-01-29 11:01:00,44.0,39.0,-100.00,South,174,6.0,13.0,81,0.22,,,0.00,29.000000,,2013-01-29 16:01:00,
2013-01-29 11:33:00,44.0,39.0,-100.00,South,174,6.0,13.0,81,0.22,,,0.00,29.000000,,2013-01-29 16:33:00,
2013-01-29 11:43:00,44.0,39.0,-100.00,South,174,6.0,13.0,81,0.22,,,0.00,29.000000,,2013-01-29 16:43:00,
2013-01-29 11:53:00,44.0,39.0,-100.00,South,174,6.0,13.0,81,0.22,,,0.00,29.000000,,2013-01-29 16:53:00,
2013-01-29 12:01:00,46.0,41.0,-100.00,South,188,8.0,18.0,81,0.00,,,0.00,26.000000,,2013-01-29 17:01:00,
2013-01-29 12:22:00,46.0,41.0,-100.00,South,188,8.0,18.0,81,0.00,,,0.00,26.000000,,2013-01-29 17:22:00,
2013-01-29 12:33:00,46.0,41.0,-100.00,South,188,8.0,18.0,81,0.00,,,0.00,26.000000,,2013-01-29 17:33:00,
2013-01-29 12:42:00,46.0,41.0,-100.00,South,188,8.0,18.0,81,0.00,,,0.00,26.000000,,2013-01-29 17:42:00,
2013-01-29 12:53:00,46.0,41.0,-100.00,South,188,8.0,18.0,81,0.00,,,0.00,26.000000,,2013-01-29 17:53:00,
2013-01-29 13:01:00,48.0,42.0,-100.00,SSW,192,6.0,16.0,81,0.00,,,0.00,67.000000,,2013-01-29 18:01:00,
2013-01-29 13:22:00,48.0,42.0,-100.00,SSW,192,6.0,16.0,81,0.00,,,0.00,67.000000,,2013-01-29 18:22:00,
2013-01-29 13:33:00,48.0,42.0,-100.00,SSW,192,6.0,16.0,81,0.00,,,0.00,67.000000,,2013-01-29 18:33:00,
2013-01-29 13:42:00,48.0,42.0,-100.00,SSW,192,6.0,16.0,81,0.00,,,0.00,67.000000,,2013-01-29 18:42:00,
2013-01-29 13:52:00,48.0,42.0,-100.00,SSW,192,6.0,16.0,81,0.00,,,0.00,67.000000,,2013-01-29 18:52:00,
2013-01-29 14:01:00,51.0,45.0,-100.00,SSW,192,9.0,17.0,81,0.00,,,-99.99,71.000000,,2013-01-29 19:01:00,
2013-01-29 14:33:00,51.0,45.0,-100.00,SSW,192,9.0,17.0,81,0.00,,,-99.99,71.000000,,2013-01-29 19:33:00,
2013-01-29 14:42:00,51.0,45.0,-100.00,SSW,192,9.0,17.0,81,0.00,,,-99.99,71.000000,,2013-01-29 19:42:00,
2013-01-29 14:52:00,51.0,45.0,-100.00,SSW,192,9.0,17.0,81,0.00,,,-99.99,71.000000,,2013-01-29 19:52:00,
2013-01-29 15:01:00,53.0,47.0,-100.00,South,191,8.0,14.0,81,0.00,,,0.00,81.000000,,2013-01-29 20:01:00,
2013-01-29 15:33:00,53.0,47.0,-100.00,South,191,8.0,14.0,81,0.00,,,0.00,81.000000,,2013-01-29 20:33:00,
2013-01-29 15:42:00,53.0,47.0,-100.00,South,191,8.0,14.0,81,0.00,,,0.00,81.000000,,2013-01-29 20:42:00,
2013-01-29 15:53:00,53.0,47.0,-100.00,South,191,8.0,14.0,81,0.00,,,0.00,81.000000,,2013-01-29 20:53:00,
2013-01-29 16:01:00,53.0,47.0,-100.00,South,190,8.0,15.0,81,0.00,,,0.00,23.000000,,2013-01-29 21:01:00,
2013-01-29 16:34:00,53.0,47.0,-100.00,South,190,8.0,15.0,81,0.00,,,0.00,23.000000,,2013-01-29 21:34:00,
2013-01-29 16:42:00,53.0,47.0,-100.00,South,190,8.0,15.0,81,0.00,,,0.00,23.000000,,2013-01-29 21:42:00,
2013-01-29 16:53:00,53.0,47.0,-100.00,South,190,8.0,15.0,81,0.00,,,0.00,23.000000,,2013-01-29 21:53:00,
2013-01-29 17:01:00,54.0,49.0,-100.00,SSW,197,13.0,25.0,82,0.00,,,0.00,14.000000,,2013-01-29 22:01:00,
2013-01-29 17:33:00,54.0,49.0,-100.00,SSW,197,13.0,25.0,82,0.00,,,0.00,14.000000,,2013-01-29 22:33:00,
2013-01-29 17:42:00,54.0,49.0,-100.00,SSW,197,13.0,25.0,82,0.00,,,0.00,14.000000,,2013-01-29 22:42:00,
2013-01-29 17:53:00,54.0,49.0,-100.00,SSW,197,13.0,25.0,82,0.00,,,0.00,14.000000,,2013-01-29 22:53:00,
2013-01-29 18:01:00,54.0,49.0,-100.00,SSW,194,13.0,25.0,82,0.00,,,0.00,1.000000,,2013-01-29 23:01:00,
2013-01-29 18:33:00,54.0,49.0,-100.00,SSW,194,13.0,25.0,82,0.00,,,0.00,1.000000,,2013-01-29 23:33:00,
2013-01-29 18:42:00,54.0,49.0,-100.00,SSW,194,13.0,25.0,82,0.00,,,0.00,1.000000,,2013-01-29 23:42:00,
2013-01-29 18:53:00,54.0,49.0,-100.00,SSW,194,13.0,25.0,82,0.00,,,0.00,1.000000,,2013-01-29 23:53:00,
2013-01-29 19:01:00,54.0,49.0,-100.00,SSW,194,11.0,23.0,82,0.00,,,0.00,0.000000,,2013-01-30 00:01:00,
2013-01-29 19:33:00,54.0,49.0,-100.00,SSW,194,11.0,23.0,82,0.00,,,0.00,0.000000,,2013-01-30 00:33:00,
2013-01-29 19:43:00,54.0,49.0,-100.00,SSW,194,11.0,23.0,82,0.00,,,0.00,0.000000,,2013-01-30 00:43:00,
2013-01-29 19:53:00,54.0,49.0,-100.00,SSW,194,11.0,23.0,82,0.00,,,0.00,0.000000,,2013-01-30 00:53:00,
2013-01-29 20:01:00,55.0,50.0,-100.00,SSW,192,14.0,28.0,82,0.00,,,0.00,0.000000,,2013-01-30 01:01:00,
2013-01-29 20:23:00,55.0,50.0,-100.00,SSW,192,14.0,28.0,82,0.00,,,0.00,0.000000,,2013-01-30 01:23:00,
2013-01-29 20:32:00,55.0,50.0,-100.00,SSW,192,14.0,28.0,82,0.00,,,0.00,0.000000,,2013-01-30 01:32:00,
2013-01-29 20:43:00,55.0,50.0,-100.00,SSW,192,14.0,28.0,82,0.00,,,0.00,0.000000,,2013-01-30 01:43:00,
2013-01-29 20:52:00,55.0,50.0,-100.00,SSW,192,14.0,28.0,82,0.00,,,0.00,0.000000,,2013-01-30 01:52:00,
2013-01-29 21:01:00,55.0,50.0,-100.00,SSW,193,13.0,28.0,82,0.00,,,0.00,0.000000,,2013-01-30 02:01:00,
2013-01-29 21:22:00,55.0,50.0,-100.00,SSW,193,13.0,28.0,82,0.00,,,0.00,0.000000,,2013-01-30 02:22:00,
2013-01-29 21:33:00,55.0,50.0,-100.00,SSW,193,13.0,28.0,82,0.00,,,0.00,0.000000,,2013-01-30 02:33:00,
2013-01-29 21:42:00,55.0,50.0,-100.00,SSW,193,13.0,28.0,82,0.00,,,0.00,0.000000,,2013-01-30 02:42:00,
2013-01-29 21:53:00,55.0,50.0,-100.00,SSW,193,13.0,28.0,82,0.00,,,0.00,0.000000,,2013-01-30 02:53:00,
2013-01-29 22:01:00,55.0,50.0,-100.00,SSW,192,14.0,26.0,82,0.00,,,0.00,0.000000,,2013-01-30 03:01:00,
2013-01-29 22:22:00,55.0,50.0,-100.00,SSW,192,14.0,26.0,82,0.00,,,0.00,0.000000,,2013-01-30 03:22:00,
2013-01-29 22:32:00,55.0,50.0,-100.00,SSW,192,14.0,26.0,82,0.00,,,0.00,0.000000,,2013-01-30 03:32:00,
2013-01-29 22:42:00,55.0,50.0,-100.00,SSW,192,14.0,26.0,82,0.00,,,0.00,0.000000,,2013-01-30 03:42:00,
2013-01-29 22:52:00,55.0,50.0,-100.00,SSW,192,14.0,26.0,82,0.00,,,0.00,0.000000,,2013-01-30 03:52:00,
2013-01-29 23:01:00,56.0,51.0,-100.00,South,189,13.0,33.0,82,0.00,,,0.00,0.000000,,2013-01-30 04:01:00,
2013-01-29 23:32:00,56.0,51.0,-100.00,South,189,13.0,33.0,82,0.00,,,0.00,0.000000,,2013-01-30 04:32:00,
2013-01-29 23:42:00,56.0,51.0,-100.00,South,189,13.0,33.0,82,0.00,,,0.00,0.000000,,2013-01-30 04:42:00,
2013-01-29 23:52:00,56.0,51.0,-100.00,South,189,13.0,33.0,82,0.00,,,0.00,0.000000,,2013-01-30 04:52:00,